Location: Unspecified
(0.0000°N, 0.0000°E)
Time: 18:28:27
(UTC+00:00)

CUTE-I - Pass Details

Date: 16 December 2019
Orbit: 810 x 825 km, 98.7° (Epoch: 17 January)

Event Time Altitude Azimuth Distance (km) Brightness Sun altitude
Rises 05:04:17 0° 40° (NE) 3,325 ? -11.7°
Reaches altitude 10° 05:07:12 10° 56° (NE) 2,394 ? -11.0°
Maximum altitude 05:11:03 21° 103° (ESE) 1,766 ? -10.2°
Drops below altitude 10° 05:14:54 10° 150° (SSE) 2,396 ? -9.3°
Sets 05:17:47 0° 166° (SSE) 3,328 ? -8.6°
